Location: Albany
(35.0170°S, 117.8920°E)
Time: 01:58:03
(UTC+08:00)

Vanguard 1 - Pass Details

Date: 27 January 2021
Orbit: 649 x 3833 km, 34.2° (Epoch: 25 February)

Event Time Altitude Azimuth Distance (km) Brightness Sun altitude
Rises 07:22:40 0° 274° (W) 3,152 12.1 22.8°
Reaches altitude 10° 07:25:34 10° 295° (WNW) 2,438 11.6 23.4°
Maximum altitude 07:29:12 17° 336° (NNW) 2,288 11.8 24.1°
Drops below altitude 10° 07:33:56 10° 14° (NNE) 3,310 13.0 25.1°
Sets 07:38:56 0° 31° (NNE) 4,895 14.0 26.1°
